OPS 4682 DEB, 19355

Orbit data source: Space-Track

OPS 4682 DEB, 19355 is space debris in LEO originally from a launch on Sat, 03 Apr 1965 UTC launched from the Air Force Western Test Range (AFWTR). Debris objects in space refer to the collection of defunct objects orbiting the Earth. Examples of debris include non-operational satellites, rocket bodies, and fragments generated from explosions, collisions, or faulty payload assembly.

Loading next visibility...
Identifier
19355, 1965-027AT
Orbit
LEO
Country
Flag of USUS
Related business
Manufacturer
Unknown
Mission
Spacecraft
Bus & Motor
Unknown
Mass
Unknown
Launch date (UTC)
1965-04-03 (61 years ago)
Launch vehicle
Unknown
Launch site
Air Force Western Test Range (AFWTR)
Object type
Payload
Rocket body
Debris
Shape & HBR
Unknown shape, 0.1 m
Radar Cross Section
Small (<0.1 m²)

Expand to show TLE details & history
Last TLE update: 21 hours ago

TLE from 21 hours ago
0 OPS 4682 DEB
1 19355U 65027AT  25341.03395527  .00001015  00000-0  34246-2 0  9990
2 19355  90.2320 353.4166 0042951 193.0230 195.0048 12.98148033777779
Epoch: 2025-12-07T00:48Z
TLE epoch observation values (Epoch: 2025-12-07T00:48:53.735Z)
Latitude
27.93828°
Longitude
-94.98286°
Altitude
1,304.527 km
Speed
7.192 km/s
True Right ascension
23h 33m 10s
True Declination
27° 48' 23"
Sunlit
Object was in daylight at epoch
Visualization orbit readout
Latitude
Unknown
Longitude
Unknown
Altitude
Unknown
Speed
Unknown
Apparent Right ascension
Unknown
Apparent Declination
Unknown
Sunlit
N/A
Visualization observer readout
Local Sidereal Time
20:15:45
Azimuth
Unknown
Elevation
Unknown
Doppler factor
Unknown
Orbital elements
Apogee altitude
1,299.315 km
Perigee altitude
1,233.647 km
Semi-major axis
7,644.618 km
Eccentricity
0.0043
Inclination
90.232°
RAAN
353.4166°
Arg. of periapsis
193.023°
True anomaly
194.87803°
Mean anomaly
195.0048°
Eccentric anomaly
194.94135°
Mean motion
3.2472 °/min
Orbital period
110.86 mins
BSTAR
0.0034246
Loading maneuver chart data...
Computing Atmospheric mass density...
Loading historical data...
Loading historical data...
Loading historical data...
Loading historical data...
Loading historical data...
Loading historical data...
Loading historical data...

Documentation

Showing up to 5 results
|